OK1VCF-8 Weather Reports


time (UTC)temp
C
wind
direction
speed
KPH
gust
KPH
rain 1hr
cm
rain 24hr
cm
rain mn
cm
humidity
%
barometer
mb
20260507165949 15 0 0.0 0.0 0.00 0.00 0.00 64 1014.2
20260507165229 15 0 0.0 0.0 0.00 0.00 0.00 66 1014.2
20260507164511 15 0 0.0 0.0 0.00 0.00 0.00 64 1014.2
20260507163750 15 0 0.0 0.0 0.00 0.00 0.00 62 1014.1
20260507163030 15 0 0.0 0.0 0.00 0.00 0.00 60 1014.0
20260507162310 15 0 0.0 0.0 0.00 0.00 0.00 60 1014.0
20260507161304 15 0 0.0 0.0 0.00 0.00 0.00 60 1013.8
20260507160545 16 0 0.0 0.0 0.00 0.00 0.00 59 1013.8
20260507155824 16 0 0.0 0.0 0.00 0.00 0.00 56 1013.9
20260507155105 16 0 0.0 0.0 0.00 0.00 0.00 56 1014.4
20260507154344 16 0 0.0 0.0 0.00 0.00 0.00 57 1013.8
20260507153623 16 0 0.0 0.0 0.00 0.00 0.00 55 1013.6
20260507152903 17 0 0.0 0.0 0.00 0.00 0.00 54 1013.6
20260507152144 20 0 0.0 0.0 0.00 0.00 0.00 47 1013.4
20260507151422 20 0 0.0 0.0 0.00 0.00 0.00 49 1013.4
20260507150704 17 0 0.0 0.0 0.00 0.00 0.00 55 1013.4
20260507145943 18 0 0.0 0.0 0.00 0.00 0.00 54 1013.2
20260507145221 19 0 0.0 0.0 0.00 0.00 0.00 50 1013.0
20260507144501 19 0 0.0 0.0 0.00 0.00 0.00 50 1013.1
20260507143742 21 0 0.0 0.0 0.00 0.00 0.00 48 1013.0
20260507143022 18 0 0.0 0.0 0.00 0.00 0.00 51 1013.0
20260507142018 20 0 0.0 0.0 0.00 0.00 0.00 49 1013.0
20260507141257 20 0 0.0 0.0 0.00 0.00 0.00 46 1013.1
20260507140539 21 0 0.0 0.0 0.00 0.00 0.00 47 1013.0
20260507135818 19 0 0.0 0.0 0.00 0.00 0.00 49 1013.0
20260507135059 20 0 0.0 0.0 0.00 0.00 0.00 48 1013.4
20260507134339 19 0 0.0 0.0 0.00 0.00 0.00 50 1013.2
20260507133617 18 0 0.0 0.0 0.00 0.00 0.00 51 1013.2
20260507132857 18 0 0.0 0.0 0.00 0.00 0.00 50 1013.2
20260507132131 18 0 0.0 0.0 0.00 0.00 0.00 49 1013.1
20260507131410 20 0 0.0 0.0 0.00 0.00 0.00 48 1013.2
20260507130647 20 0 0.0 0.0 0.00 0.00 0.00 49 1013.2
20260507125907 18 0 0.0 0.0 0.00 0.00 0.00 51 1013.2
20260507125101 17 0 0.0 0.0 0.00 0.00 0.00 52 1013.6
20260507124249 18 0 0.0 0.0 0.00 0.00 0.00 50 1013.0
20260507121745 18 0 0.0 0.0 0.00 0.00 0.00 51 1013.1
20260507120919 18 0 0.0 0.0 0.00 0.00 0.00 51 1013.0
20260507120100 18 0 0.0 0.0 0.00 0.00 0.00 52 1013.0
20260507115243 17 0 0.0 0.0 0.00 0.00 0.00 55 1013.0
20260507114438 17 0 0.0 0.0 0.00 0.00 0.00 56 1013.0
20260507113649 17 0 0.0 0.0 0.00 0.00 0.00 54 1013.0
20260507112912 17 0 0.0 0.0 0.00 0.00 0.00 53 1013.0
20260507112142 18 0 0.0 0.0 0.00 0.00 0.00 50 1012.8
20260507111421 19 0 0.0 0.0 0.00 0.00 0.00 50 1012.8
20260507110701 18 0 0.0 0.0 0.00 0.00 0.00 50 1012.9
20260507105939 18 0 0.0 0.0 0.00 0.00 0.00 52 1012.8
20260507105218 18 0 0.0 0.0 0.00 0.00 0.00 52 1012.8
20260507104458 18 0 0.0 0.0 0.00 0.00 0.00 50 1012.8
20260507103740 20 0 0.0 0.0 0.00 0.00 0.00 51 1012.6